DW6567 Weather Reports


Display with metric or nautical units.
time (UTC)temp
F
wind
direction
speed
MPH
gust
MPH
rain 1hr
in
rain 24hr
in
rain mn
in
humidity
%
barometer
mb
20260504040041 46 0.0 0.0 0.00 0.00 0.00 55 1012.3
20260504033024 46 0.0 0.0 0.00 0.00 0.00 55
20260504030042 46 0.0 0.0 0.00 0.00 0.00 54
20260504023020 48 247 2.0 5.0 0.00 0.00 0.00 52 1012.4
20260504020021 48 270 2.0 4.0 0.00 0.00 0.00 51 1012.3
20260504013021 49 270 3.0 6.0 0.00 0.00 0.00 50 1012.2
20260504010041 49 270 3.0 7.0 0.00 0.00 0.00 47 1011.9
20260504003022 50 270 3.0 6.0 0.00 0.00 0.00 45 1011.5
20260504000025 0 270 3.0 5.0 0.00 0.00 0.00 44
20260503233022 51 270 4.0 9.0 0.00 0.00 0.00 42
20260503230022 0 270 4.0 11.0 0.00 0.00 0.00 39
20260503223023 52 270 5.0 10.0 0.00 0.00 0.00 36 1010.0
20260503220044 54 270 5.0 17.0 0.00 0.00 0.00 32 1009.8
20260503213043 54 270 4.0 10.0 0.00 0.00 0.00 33 1009.9
20260503210020 55 270 4.0 11.0 0.00 0.00 0.00 36 1009.9
20260503203023 54 270 4.0 10.0 0.00 0.00 0.00 36 1009.8
20260503200016 53 270 5.0 12.0 0.00 0.00 0.00 36
20260503193021 53 270 5.0 11.0 0.00 0.00 0.00 37
20260503190016 0 270 4.0 11.0 0.00 0.00 0.00 41
20260503183021 52 270 4.0 10.0 0.00 0.00 0.00 41 1010.7
20260503180041 50 270 4.0 10.0 0.00 0.00 0.00 47 1010.6
20260503173024 48 270 3.0 8.0 0.00 0.00 0.00 48 1011.0
20260503053020 38 0.0 4.0 0.00 0.00 0.00 74 1011.6
20260503050016 39 22 1.0 4.0 0.00 0.00 0.00 72 1011.7
20260503043020 39 22 1.0 4.0 0.00 0.00 0.00 69 1011.9